Location: Haliburton Scout Reserve
(45.0900°N, 78.3200°W)
Time: 13:05:18
(UTC-05:00)

Altair - Visible Passes

Search period start: 30 January 2023 00:00
Search period end: 09 February 2023 00:00
Orbit: 1501 x 1683 km, 47.2° (Epoch: 29 January)

Date Brightness Start Highest point End Pass type
(mag) Time Alt. Az. Time Alt. Az. Time Alt. Az.
30 Jan 9.0 04:15:32 19° S 04:15:32 19° S 04:18:27 10° S visible
30 Jan 8.0 19:18:02 10° SSW 19:26:38 38° SE 19:29:05 33° ESE visible
30 Jan 8.1 21:20:49 10° WSW 21:27:08 47° WSW 21:27:08 47° WSW visible
31 Jan 9.3 03:52:21 14° S 03:52:21 14° S 03:53:36 10° SSE visible
31 Jan 8.2 18:53:10 10° SSW 19:01:32 35° SE 19:05:42 25° E visible
31 Jan 7.7 20:55:40 10° WSW 21:03:45 65° SW 21:03:45 65° SW visible
31 Jan 9.5 23:00:35 10° W 23:01:48 15° W 23:01:48 15° W visible
01 Feb 8.3 18:28:21 10° SSW 18:36:27 32° SE 18:42:15 18° E visible
01 Feb 7.4 20:30:31 10° WSW 20:40:13 76° SSE 20:40:18 76° SSE visible
01 Feb 9.1 22:35:21 10° W 22:38:21 23° W 22:38:21 23° W visible
02 Feb 8.4 18:03:33 10° S 18:11:23 30° SE 18:18:46 12° E visible
02 Feb 7.4 20:05:23 10° SW 20:15:01 73° SSE 20:16:49 61° E visible
02 Feb 8.7 22:10:07 10° W 22:14:51 34° W 22:14:51 34° W visible
03 Feb 8.6 17:38:49 10° S 17:46:19 27° SE 17:54:02 10° ENE visible
03 Feb 7.5 19:40:16 10° SW 19:49:50 70° SSE 19:53:16 45° E visible
03 Feb 8.2 21:44:53 10° W 21:51:18 47° W 21:51:18 47° W visible
04 Feb 7.6 19:15:10 10° SW 19:24:39 66° SSE 19:29:41 33° E visible
04 Feb 7.8 21:19:39 10° W 21:27:42 65° WNW 21:27:42 65° WNW visible
04 Feb 9.6 23:24:48 10° WNW 23:25:44 14° WNW 23:25:44 14° WNW visible
05 Feb 7.7 18:50:06 10° SW 18:59:29 63° SSE 19:06:02 24° ENE visible
05 Feb 7.5 20:54:26 10° W 21:04:04 82° NNW 21:04:04 82° NNW visible
05 Feb 9.3 22:59:35 10° WNW 23:02:06 21° WNW 23:02:06 21° WNW visible
06 Feb 7.7 18:25:03 10° SW 18:34:19 59° SE 18:42:22 16° ENE visible
06 Feb 7.4 20:29:13 10° W 20:39:00 83° NNW 20:40:24 70° ENE visible
06 Feb 8.9 22:34:22 10° WNW 22:38:26 29° WNW 22:38:26 29° WNW visible
07 Feb 7.8 18:00:00 10° SW 18:09:11 56° SE 18:18:40 10° ENE visible
07 Feb 7.5 20:04:00 10° WSW 20:13:45 85° NNW 20:16:42 53° ENE visible
07 Feb 8.5 22:09:08 10° WNW 22:14:44 40° WNW 22:14:44 40° WNW visible
08 Feb 7.5 19:38:49 10° WSW 19:48:30 86° NNW 19:52:58 39° ENE visible
08 Feb 8.0 21:43:55 10° W 21:51:00 54° WNW 21:51:00 54° WNW visible
